Location: Chaumontel
(49.1247°N, 2.4324°E)
Time: 12:43:43
(UTC+00:00)

COSMOS 2428 - Pass Details

Date: 12 August 2024
Orbit: 842 x 857 km, 70.9° (Epoch: 14 September)

Event Time Altitude Azimuth Distance (km) Brightness Sun altitude
Exits shadow 03:29:26 - 262° (W) 2,551 4.7 -10.5°
Reaches altitude 10° 03:29:42 10° 264° (W) 2,474 4.6 -10.5°
Maximum altitude 03:34:16 24° 318° (NW) 1,688 4.2 -9.9°
Drops below altitude 10° 03:38:52 10° 12° (NNE) 2,492 5.9 -9.3°
Sets 03:41:49 0° 26° (NNE) 3,434 7.1 -8.9°
